Cloquet, MN

9:14 PM CST on February 10, 2016 (GMT -0600)
Cloquet Carlton County

Weather History for KCOQ - December, 2012

Change the Weather History Date:

Sunday, December 9, 2012

  Actual Average Record
Temperature  
Mean Temperature 21 °F -  
Max Temperature 28 °F 27 °F 42 °F (2001)
Min Temperature 14 °F 14 °F -16 °F (2007)
Degree Days  
Heating Degree Days 44    
Moisture  
Dew Point 21 °F    
Average Humidity 84    
Maximum Humidity 93    
Minimum Humidity 74    
Precipitation  
Precipitation 0.08 in - - ()
Sea Level Pressure  
Sea Level Pressure 29.99 in    
Wind  
Wind Speed 7 mph (NE)    
Max Wind Speed 20 mph    
Max Gust Speed 28 mph    
Visibility 3 miles    
Events Snow    
Averages and records for this station are not official NWS values.
T = Trace of Precipitation, MM = Missing Value Source: NWS Daily Summary

Daily Weather History Graph

Daily Weather History Graph

Search for Another Location

Airport or City:

Trip Planner

Search our weather history database for the weather conditions in past years. The results will help you decide how hot, cold, wet, or windy it might be!

Date:

Astronomy

Dec. 09, 2012 Rise Set
Actual Time 7:43 AM CST 4:22 PM CST
Civil Twilight 7:08 AM CST 4:56 PM CST
Nautical Twilight 6:29 AM CST 5:35 PM CST
Astronomical Twilight 5:53 AM CST 6:12 PM CST
Moon 3:05 AM CST (12/9) 1:39 PM CST (12/9)
Length of Visible Light 9h 48m
Length of Day
8h 38m
Waning Crescent, 18% of the Moon is Illuminated
Dec 9
Waning Crescent
Dec 13
New
Dec 19
First Quarter
Dec 28
Full
Jan 4
Last Quarter

Hourly Weather History & Observations

Time (CST) Temp. Windchill Dew Point Humidity Pressure Visibility Wind Dir Wind Speed Gust Speed Precip Events Conditions
12:16 AM 26.6 °F 21.2 °F 19.4 °F 74% 30.06 in 10.0 mi East 4.6 mph - N/A   Overcast
12:36 AM 26.6 °F 22.6 °F 19.4 °F 74% 30.06 in 10.0 mi East 3.5 mph - N/A   Overcast
12:56 AM 26.6 °F 22.6 °F 19.4 °F 74% 30.06 in 7.0 mi East 3.5 mph - N/A Snow Light Snow
1:16 AM 26.6 °F 21.2 °F 21.2 °F 80% 30.05 in 5.0 mi East 4.6 mph - N/A Snow Light Snow
1:36 AM 26.6 °F 22.6 °F 21.2 °F 80% 30.05 in 7.0 mi East 3.5 mph - N/A Snow Light Snow
1:56 AM 26.6 °F 21.2 °F 21.2 °F 80% 30.05 in 4.0 mi ESE 4.6 mph - N/A Snow Light Snow
2:16 AM 26.6 °F 22.6 °F 21.2 °F 80% 30.05 in 3.0 mi ESE 3.5 mph - N/A Snow Light Snow
2:35 AM 26.6 °F 22.6 °F 21.2 °F 80% 30.05 in 3.0 mi East 3.5 mph - N/A Snow Light Snow
2:56 AM 26.6 °F 22.6 °F 21.2 °F 80% 30.05 in 2.5 mi East 3.5 mph - N/A Snow Light Snow
3:16 AM 26.6 °F 21.2 °F 23.0 °F 86% 30.04 in 2.5 mi East 4.6 mph - N/A Snow Light Snow
3:36 AM 26.6 °F 22.6 °F 23.0 °F 86% 30.04 in 3.0 mi East 3.5 mph - N/A Snow Light Snow
3:56 AM 26.6 °F 21.2 °F 23.0 °F 86% 30.04 in 3.0 mi East 4.6 mph - N/A Snow Light Snow
4:16 AM 24.8 °F 19.1 °F 21.2 °F 86% 30.03 in 3.0 mi East 4.6 mph - N/A Snow Light Snow
4:36 AM 24.8 °F 20.5 °F 21.2 °F 86% 30.04 in 2.0 mi East 3.5 mph - N/A Snow Light Snow
4:56 AM 24.8 °F 19.1 °F 21.2 °F 86% 30.03 in 2.0 mi East 4.6 mph - 0.01 in Snow Light Snow
5:16 AM 26.6 °F 22.6 °F 23.0 °F 86% 30.03 in 2.0 mi East 3.5 mph - 0.01 in Snow Light Snow
5:35 AM 26.6 °F 20.0 °F 23.0 °F 86% 30.04 in 1.8 mi East 5.8 mph - 0.01 in Snow Light Snow
6:16 AM 26.6 °F 21.2 °F 23.0 °F 86% 30.04 in 2.5 mi East 4.6 mph - N/A Snow Light Snow
6:36 AM 26.6 °F 20.0 °F 23.0 °F 86% 30.04 in 2.5 mi ENE 5.8 mph - N/A Snow Light Snow
6:56 AM 26.6 °F 20.0 °F 23.0 °F 86% 30.04 in 2.0 mi East 5.8 mph - N/A Snow Light Snow
7:16 AM 26.6 °F 20.0 °F 23.0 °F 86% 30.04 in 1.5 mi ENE 5.8 mph - 0.01 in Snow Light Snow
7:36 AM 26.6 °F 19.1 °F 23.0 °F 86% 30.03 in 1.5 mi ENE 6.9 mph - 0.01 in Snow Light Snow
7:56 AM 26.6 °F 20.0 °F 23.0 °F 86% 30.03 in 1.2 mi ENE 5.8 mph - N/A Snow Light Snow
8:16 AM 26.6 °F 20.0 °F 23.0 °F 86% 30.03 in 1.5 mi ENE 5.8 mph - N/A Snow Light Snow
8:36 AM 26.6 °F 19.1 °F 24.8 °F 93% 30.04 in 1.8 mi ENE 6.9 mph - N/A Snow Light Snow
8:56 AM 26.6 °F 20.0 °F 24.8 °F 93% 30.04 in 0.8 mi ENE 5.8 mph - 0.01 in Snow Light Snow
9:16 AM 26.6 °F 19.1 °F 24.8 °F 93% 30.03 in 0.8 mi ENE 6.9 mph - 0.01 in Snow Light Snow
9:35 AM 28.4 °F 21.2 °F 24.8 °F 86% 30.03 in 1.0 mi ENE 6.9 mph - 0.02 in Snow Light Snow
9:55 AM 28.4 °F 20.4 °F 24.8 °F 86% 30.04 in 0.8 mi East 8.1 mph - 0.02 in Snow Light Snow
10:16 AM 28.4 °F 22.2 °F 24.8 °F 86% 30.04 in 1.0 mi ENE 5.8 mph - 0.01 in Snow Light Snow
10:36 AM 28.4 °F 19.7 °F 24.8 °F 86% 30.03 in 1.2 mi ENE 9.2 mph - 0.01 in Snow Light Snow
10:55 AM 28.4 °F 20.4 °F 24.8 °F 86% 30.02 in 1.5 mi ENE 8.1 mph - 0.01 in Snow Light Snow
11:16 AM 28.4 °F 21.2 °F 24.8 °F 86% 30.02 in 1.2 mi ENE 6.9 mph - N/A Snow Light Snow
11:36 AM 28.4 °F 19.7 °F 24.8 °F 86% 30.01 in 1.0 mi East 9.2 mph - N/A Snow Light Snow
11:55 AM 28.4 °F 20.4 °F 24.8 °F 86% 30.00 in 1.0 mi ENE 8.1 mph - N/A Snow Light Snow
12:16 PM 28.4 °F 20.4 °F 24.8 °F 86% 29.99 in 0.8 mi ENE 8.1 mph - 0.01 in Snow Light Snow
12:36 PM 28.4 °F 19.7 °F 24.8 °F 86% 29.98 in 1.0 mi ENE 9.2 mph - 0.01 in Snow Light Snow
12:56 PM 28.4 °F 20.4 °F 24.8 °F 86% 29.98 in 1.0 mi ENE 8.1 mph - N/A Snow Light Snow
1:16 PM 28.4 °F 19.7 °F 24.8 °F 86% 29.97 in 1.2 mi ENE 9.2 mph - N/A Snow Light Snow
1:36 PM 28.4 °F 20.4 °F 24.8 °F 86% 29.96 in 1.2 mi ENE 8.1 mph - N/A Snow Light Snow
1:56 PM 28.4 °F 20.4 °F 24.8 °F 86% 29.95 in 1.2 mi ENE 8.1 mph - N/A Snow Light Snow
2:16 PM 28.4 °F 19.7 °F 24.8 °F 86% 29.94 in 1.5 mi ENE 9.2 mph - N/A Snow Light Snow
2:36 PM 28.4 °F 21.2 °F 24.8 °F 86% 29.94 in 1.5 mi ENE 6.9 mph - N/A Snow Light Snow
2:56 PM 28.4 °F 21.2 °F 24.8 °F 86% 29.93 in 2.0 mi ENE 6.9 mph - N/A Snow Light Snow
3:16 PM 28.4 °F 21.2 °F 24.8 °F 86% 29.93 in 1.5 mi ENE 6.9 mph - N/A Snow Light Snow
3:36 PM 28.4 °F 21.2 °F 24.8 °F 86% 29.94 in 1.2 mi ENE 6.9 mph - N/A Snow Light Snow
3:56 PM 28.4 °F 24.6 °F 26.6 °F 93% 29.94 in 3.0 mi North 3.5 mph - N/A Snow Light Snow
4:16 PM 28.4 °F 22.2 °F 24.8 °F 86% 29.94 in 5.0 mi NNE 5.8 mph - N/A Snow Light Snow
4:36 PM 28.4 °F 23.3 °F 24.8 °F 86% 29.94 in 2.5 mi North 4.6 mph - N/A Snow Light Snow
4:56 PM 28.4 °F 22.2 °F 24.8 °F 86% 29.94 in 2.5 mi North 5.8 mph - N/A Snow Light Snow
5:16 PM 26.6 °F 16.2 °F 23.0 °F 86% 29.94 in 2.5 mi North 11.5 mph 18.4 mph N/A Snow Light Snow
5:36 PM 24.8 °F 12.9 °F 21.2 °F 86% 29.95 in 2.5 mi NNW 13.8 mph 18.4 mph N/A Snow Light Snow
5:55 PM 24.8 °F 14.0 °F 19.4 °F 80% 29.95 in 2.5 mi North 11.5 mph 16.1 mph N/A Snow Light Snow
6:16 PM 24.8 °F 14.0 °F 19.4 °F 80% 29.95 in 2.5 mi North 11.5 mph 19.6 mph N/A Snow Light Snow
6:36 PM 23.0 °F 13.1 °F 19.4 °F 86% 29.95 in 4.0 mi North 9.2 mph 17.3 mph N/A Snow Light Snow
6:55 PM 21.2 °F 7.3 °F 17.6 °F 86% 29.96 in 2.5 mi NNW 16.1 mph - N/A Snow Light Snow
7:16 PM 21.2 °F 8.9 °F 17.6 °F 86% 29.96 in 2.5 mi North 12.7 mph 23.0 mph N/A Snow Light Snow
7:36 PM 21.2 °F 7.3 °F 15.8 °F 80% 29.96 in 3.0 mi NNW 16.1 mph - N/A Snow Light Snow
7:56 PM 19.4 °F 5.0 °F 15.8 °F 86% 29.96 in 3.0 mi North 16.1 mph 23.0 mph N/A Snow Light Snow
8:16 PM 19.4 °F 4.1 °F 15.8 °F 86% 29.95 in 3.0 mi NNW 18.4 mph 23.0 mph N/A Snow Light Snow
8:36 PM 19.4 °F 4.1 °F 14.0 °F 80% 29.95 in 3.0 mi NNW 18.4 mph 24.2 mph N/A Snow Light Snow
8:56 PM 17.6 °F 1.7 °F 12.2 °F 79% 29.94 in 3.0 mi NNW 18.4 mph 27.6 mph N/A Snow Light Snow
9:16 PM 17.6 °F 1.7 °F 12.2 °F 79% 29.94 in 4.0 mi NNW 18.4 mph 26.5 mph N/A Snow Light Snow
9:35 PM 17.6 °F 2.7 °F 12.2 °F 79% 29.93 in 3.0 mi NNW 16.1 mph 24.2 mph N/A Snow Light Snow
9:56 PM 17.6 °F 1.3 °F 12.2 °F 79% 29.93 in 3.0 mi NNW 19.6 mph 24.2 mph N/A Snow Light Snow
10:16 PM 17.6 °F 3.2 °F 12.2 °F 79% 29.93 in 3.0 mi NNW 15.0 mph - N/A Snow Light Snow
10:56 PM 15.8 °F 0.3 °F 10.4 °F 79% 29.92 in 3.0 mi NNW 16.1 mph 26.5 mph N/A Snow Light Snow
11:16 PM 15.8 °F 0.3 °F 10.4 °F 79% 29.92 in 5.0 mi NNW 16.1 mph - N/A Snow Light Snow
11:36 PM 14.0 °F -2.0 °F 8.6 °F 79% 29.91 in 5.0 mi NNW 16.1 mph 20.7 mph N/A Snow Light Snow
11:56 PM 14.0 °F -1.4 °F 8.6 °F 79% 29.91 in 4.0 mi NW 15.0 mph 19.6 mph N/A Snow Light Snow